Temp
-15 -15 -15 -16 -17 -16 -16 -16 -15 -15 -15 -15 -14 -14 -13 -13 -13 -14 -15 -14 -14 -15 -14 -14 -13 -13 -13 -12 -12 -12 -12 -12 -12 -12 -12 -13 -13 -13 -14 -14 -14 -14 -15 -11
-15 -16 -16 -16 -16 -16 -16 -16 -15 -15 -15 -15 -14 -14 -14 -13 -13 -14 -14 -14 -14 -14 -14 -14 -13 -13 -13 -13 -13 -12 -12 -12 -12 -13 -13 -13 -13 -14 -14 -15 -15 -15 -16 -15
-16 -15 -16 -15 -15 -15 -16 -16 -16 -16 -16 -15 -15 -14 -14 -13 -13 -14 -14 -14 -14 -14 -14 -14 -13 -13 -13 -13 -13 -13 -13 -12 -13 -13 -14 -14 -13 -13 -13 -14 -14 -14 -15 -15
-16 -15 -15 -15 -16 -15 -15 -15 -14 -14 -14 -14 -15 -15 -14 -14 -14 -14 -14 -14 -14 -14 -14 -14 -14 -14 -14 -13 -13 -13 -13 -13 -14 -14 -14 -14 -14 -14 -14 -14 -15 -15 -15 -16
-16 -16 -15 -15 -15 -15 -15 -14 -13 -13 -14 -15 -15 -15 -14 -14 -15 -14 -14 -14 -14 -14 -14 -14 -14 -14 -13 -13 -13 -13 -14 -14 -14 -14 -14 -15 -14 -14 -14 -15 -16 -16 -16 -16
-16 -15 -16 -15 -15 -15 -14 -14 -14 -14 -14 -15 -15 -14 -14 -15 -15 -14 -14 -14 -14 -14 -14 -14 -14 -14 -13 -14 -14 -14 -14 -15 -15 -14 -14 -14 -14 -14 -15 -15 -16 -15 -16 -17
-16 -16 -16 -15 -15 -15 -14 -13 -14 -14 -14 -14 -14 -14 -14 -14 -14 -14 -14 -14 -14 -14 -15 -15 -14 -14 -14 -14 -15 -15 -15 -15 -15 -15 -15 -14 -15 -15 -16 -16 -16 -17 -18 -19
-16 -16 -15 -15 -15 -15 -14 -14 -15 -14 -15 -14 -14 -14 -14 -14 -14 -14 -14 -14 -14 -15 -15 -15 -14 -14 -14 -15 -15 -15 -15 -15 -16 -16 -15 -16 -16 -17 -17 -17 -18 -19 -20 -21
-15 -15 -15 -15 -15 -15 -16 -15 -15 -15 -15 -14 -14 -14 -14 -14 -14 -14 -14 -14 -15 -15 -15 -15 -15 -15 -15 -15 -14 -15 -15 -16 -16 -16 -17 -16 -17 -18 -18 -19 -20 -21 -22 -23
-16 -16 -15 -15 -15 -15 -15 -15 -15 -15 -14 -14 -14 -14 -14 -14 -14 -14 -14 -14 -15 -15 -15 -15 -15 -15 -15 -15 -15 -15 -16 -16 -16 -16 -17 -17 -18 -19 -20 -21 -22 -23 -24 -26
-17 -15 -16 -15 -15 -15 -15 -14 -15 -14 -14 -14 -14 -14 -14 -14 -14 -14 -15 -15 -15 -15 -15 -15 -15 -15 -16 -16 -16 -16 -16 -17 -16 -17 -18 -19 -20 -21 -22 -23 -25 -25 -26 -27
-18 -16 -15 -16 -15 -15 -15 -14 -14 -14 -14 -14 -14 -15 -15 -15 -15 -15 -15 -15 -15 -15 -15 -15 -15 -16 -16 -16 -16 -17 -17 -17 -18 -19 -20 -21 -22 -23 -24 -25 -26 -26 -27 -27
-17 -17 -16 -16 -15 -15 -15 -15 -14 -15 -14 -14 -15 -15 -14 -15 -15 -16 -16 -15 -15 -15 -15 -16 -16 -16 -16 -16 -17 -17 -18 -19 -19 -20 -22 -22 -24 -24 -25 -26 -26 -27 -27 -27
-17 -17 -16 -16 -15 -15 -15 -15 -15 -15 -14 -14 -14 -15 -15 -15 -16 -16 -15 -15 -16 -16 -16 -16 -16 -16 -16 -17 -18 -19 -19 -20 -22 -23 -24 -24 -26 -26 -26 -27 -27 -27 -27 -27
-16 -16 -16 -16 -15 -15 -15 -15 -15 -15 -15 -14 -15 -15 -15 -15 -15 -16 -16 -16 -16 -16 -16 -16 -17 -17 -18 -19 -20 -20 -20 -22 -23 -24 -25 -26 -26 -27 -27 -27 -27 -27 -27 -27
-17 -17 -15 -16 -16 -16 -15 -15 -14 -15 -15 -15 -15 -15 -16 -16 -16 -16 -16 -16 -17 -17 -17 -17 -18 -19 -19 -20 -22 -23 -23 -24 -25 -26 -26 -26 -27 -27 -27 -27 -27 -27 -27 -28
-16 -16 -16 -16 -16 -16 -15 -15 -15 -15 -15 -16 -16 -16 -16 -16 -16 -16 -17 -17 -17 -18 -18 -19 -20 -20 -20 -21 -23 -24 -25 -25 -26 -26 -26 -27 -27 -27 -27 -27 -28 -28 -28 -28
-16 -17 -16 -16 -16 -16 -16 -17 -17 -17 -17 -17 -17 -16 -17 -17 -17 -17 -17 -18 -18 -19 -20 -21 -21 -22 -23 -23 -23 -24 -25 -25 -26 -27 -27 -27 -27 -28 -28 -28 -28 -28 -28 -28
-17 -17 -17 -17 -17 -17 -17 -17 -17 -17 -17 -16 -17 -17 -17 -17 -17 -18 -18 -19 -20 -20 -21 -22 -23 -24 -24 -23 -24 -25 -25 -25 -26 -27 -28 -28 -28 -28 -28 -28 -29 -29 -29 -29
-17 -18 -17 -17 -17 -17 -18 -17 -17 -17 -17 -17 -17 -17 -18 -18 -19 -19 -19 -20 -21 -21 -22 -22 -23 -24 -24 -25 -26 -26 -26 -27 -27 -27 -28 -28 -28 -29 -29 -30 -30 -30 -30 -30
-18 -18 -18 -18 -18 -17 -17 -17 -17 -17 -18 -18 -18 -18 -19 -19 -20 -20 -21 -21 -21 -22 -23 -23 -24 -24 -25 -26 -26 -26 -26 -27 -27 -28 -28 -29 -29 -30 -31 -31 -31 -31 -31 -31
-18 -18 -18 -18 -18 -17 -17 -18 -18 -18 -18 -19 -19 -19 -20 -20 -20 -21 -21 -22 -22 -23 -23 -23 -24 -24 -25 -25 -26 -26 -27 -27 -28 -28 -29 -30 -30 -31 -31 -31 -31 -31 -31 -31
-18 -18 -18 -18 -18 -18 -18 -19 -19 -19 -19 -19 -20 -20 -20 -20 -21 -22 -22 -22 -22 -23 -23 -24 -24 -25 -25 -26 -27 -27 -28 -28 -29 -30 -30 -31 -32 -32 -32 -32 -32 -32 -32 -32
-18 -19 -19 -19 -19 -19 -19 -19 -19 -19 -19 -20 -20 -20 -20 -21 -22 -22 -22 -22 -23 -23 -24 -24 -25 -26 -26 -27 -27 -28 -28 -29 -30 -31 -31 -32 -33 -33 -33 -33 -33 -33 -33 -33
-19 -19 -19 -19 -19 -19 -19 -19 -19 -20 -20 -20 -21 -21 -22 -22 -22 -22 -23 -23 -24 -24 -25 -25 -26 -26 -26 -26 -27 -27 -28 -29 -30 -31 -32 -32 -33 -33 -34 -34 -34 -34 -34 -34
-19 -19 -20 -19 -19 -19 -20 -20 -20 -21 -21 -21 -22 -22 -22 -22 -22 -23 -23 -24 -24 -24 -25 -25 -25 -26 -26 -26 -27 -27 -28 -29 -31 -32 -32 -33 -34 -34 -34 -35 -35 -35 -35 -35
-20 -20 -20 -20 -20 -20 -20 -20 -21 -21 -21 -21 -22 -22 -22 -22 -22 -23 -23 -23 -24 -24 -25 -25 -25 -26 -26 -27 -27 -28 -29 -30 -31 -32 -33 -34 -34 -34 -34 -34 -34 -35 -35 -35
Height
5572 5584 5594 5603 5618 5632 5642 5652 5661 5673 5676 5683 5686 5692 5699 5705 5707 5710 5713 5714 5716 5716 5717 5714 5717 5715 5712 5712 5713 5712 5712 5707 5704 5703 5698 5695 5689 5685 5680 5672 5666 5656 5650 5647
5559 5573 5586 5596 5609 5618 5631 5641 5648 5660 5666 5668 5674 5682 5689 5693 5697 5700 5702 5703 5705 5706 5706 5706 5704 5705 5706 5704 5701 5697 5696 5691 5690 5687 5685 5682 5676 5670 5663 5656 5651 5645 5636 5631
5548 5564 5576 5589 5598 5608 5619 5628 5635 5643 5654 5657 5665 5672 5679 5684 5687 5688 5690 5692 5694 5695 5695 5697 5694 5694 5693 5691 5690 5687 5684 5681 5681 5677 5673 5667 5661 5657 5651 5644 5636 5630 5619 5613
5536 5553 5568 5578 5588 5597 5608 5614 5621 5631 5643 5648 5658 5664 5670 5673 5675 5677 5679 5681 5684 5685 5683 5685 5685 5684 5682 5679 5676 5673 5670 5668 5667 5664 5661 5655 5650 5644 5636 5628 5620 5609 5606 5591
5525 5544 5554 5567 5578 5586 5596 5605 5612 5622 5633 5643 5647 5651 5656 5661 5663 5666 5669 5671 5674 5674 5674 5675 5673 5673 5672 5669 5665 5661 5659 5655 5653 5650 5646 5642 5635 5628 5620 5613 5603 5593 5584 5575
5517 5534 5550 5560 5569 5579 5586 5595 5605 5614 5622 5630 5637 5642 5648 5650 5652 5654 5658 5661 5660 5664 5665 5663 5662 5660 5659 5656 5653 5650 5648 5645 5641 5638 5633 5625 5620 5612 5604 5596 5584 5573 5564 5555
5505 5525 5538 5551 5562 5569 5577 5589 5599 5606 5614 5622 5628 5633 5637 5639 5641 5643 5647 5649 5650 5654 5653 5652 5650 5649 5646 5643 5641 5638 5635 5633 5627 5623 5617 5610 5601 5595 5588 5579 5566 5558 5548 5537
5495 5514 5530 5547 5557 5564 5573 5582 5590 5598 5604 5614 5617 5623 5627 5629 5631 5634 5636 5638 5640 5642 5643 5641 5638 5636 5635 5633 5630 5627 5624 5620 5613 5608 5604 5595 5586 5580 5569 5562 5557 5544 5533 5523
5486 5508 5526 5541 5552 5559 5563 5575 5585 5591 5597 5603 5610 5614 5617 5619 5622 5623 5625 5627 5629 5630 5629 5628 5625 5624 5623 5621 5618 5615 5610 5605 5599 5592 5585 5578 5573 5561 5553 5546 5540 5528 5520 5511
5479 5498 5521 5534 5545 5555 5562 5570 5577 5585 5590 5594 5600 5604 5606 5609 5611 5614 5617 5618 5619 5620 5619 5617 5615 5614 5611 5607 5604 5601 5595 5589 5582 5575 5568 5565 5556 5548 5540 5533 5529 5516 5510 5504
5475 5494 5515 5530 5541 5547 5556 5561 5569 5578 5582 5584 5591 5594 5595 5598 5601 5604 5607 5608 5609 5609 5607 5606 5604 5601 5598 5594 5591 5586 5582 5575 5569 5560 5554 5549 5540 5533 5529 5521 5512 5509 5504 5501
5474 5492 5511 5523 5534 5542 5549 5556 5564 5570 5572 5577 5580 5585 5587 5588 5591 5595 5596 5597 5598 5597 5596 5594 5591 5589 5585 5582 5578 5572 5566 5561 5554 5550 5543 5535 5527 5519 5515 5511 5507 5502 5498 5494
5476 5490 5505 5517 5527 5536 5544 5551 5557 5561 5565 5569 5573 5576 5578 5580 5584 5586 5587 5587 5587 5586 5584 5582 5579 5577 5574 5569 5564 5558 5554 5547 5543 5534 5525 5521 5516 5513 5508 5504 5501 5497 5494 5490
5473 5487 5499 5511 5522 5530 5536 5542 5548 5553 5560 5561 5564 5566 5569 5572 5575 5576 5577 5577 5577 5575 5573 5570 5568 5565 5561 5554 5550 5544 5539 5533 5527 5524 5515 5514 5508 5503 5499 5496 5494 5493 5492 5486
5470 5484 5497 5508 5516 5522 5528 5535 5540 5545 5552 5553 5554 5558 5561 5564 5566 5566 5567 5566 5565 5564 5562 5559 5556 5551 5547 5540 5535 5530 5525 5521 5515 5512 5506 5504 5500 5494 5490 5488 5485 5481 5482 5480
5471 5484 5494 5504 5509 5515 5521 5526 5531 5537 5541 5543 5546 5550 5553 5555 5557 5557 5557 5556 5554 5553 5550 5546 5542 5538 5534 5529 5523 5513 5512 5509 5505 5502 5496 5494 5490 5487 5483 5480 5477 5474 5472 5470
5469 5479 5490 5497 5504 5510 5516 5521 5526 5529 5533 5536 5540 5543 5546 5546 5546 5546 5545 5545 5543 5541 5538 5535 5530 5525 5522 5518 5512 5505 5501 5498 5494 5491 5488 5484 5479 5477 5472 5468 5466 5464 5462 5458
5469 5478 5486 5493 5499 5504 5509 5513 5519 5523 5527 5531 5533 5536 5537 5537 5536 5537 5536 5534 5533 5530 5526 5522 5518 5513 5509 5507 5502 5497 5492 5488 5483 5478 5475 5472 5467 5463 5459 5455 5453 5450 5447 5443
5467 5475 5482 5487 5494 5499 5504 5508 5513 5517 5523 5525 5527 5528 5528 5528 5528 5527 5527 5525 5523 5520 5517 5514 5509 5503 5499 5496 5492 5487 5482 5477 5472 5467 5462 5459 5454 5449 5444 5440 5437 5434 5430 5427
5464 5472 5479 5485 5491 5496 5499 5503 5507 5511 5514 5516 5517 5518 5519 5521 5521 5519 5520 5517 5515 5513 5509 5505 5501 5494 5490 5488 5482 5475 5470 5468 5462 5456 5450 5445 5441 5436 5429 5424 5420 5417 5414 5412
5466 5470 5476 5485 5489 5492 5496 5499 5503 5507 5508 5509 5509 5511 5513 5514 5514 5514 5512 5509 5506 5503 5500 5496 5490 5486 5482 5476 5471 5466 5460 5456 5450 5444 5438 5432 5426 5420 5415 5411 5406 5403 5400 5397
5466 5473 5477 5482 5486 5488 5492 5495 5498 5501 5502 5504 5505 5507 5508 5508 5507 5505 5504 5500 5497 5495 5492 5487 5482 5478 5474 5469 5463 5456 5450 5445 5439 5432 5425 5417 5411 5404 5400 5395 5391 5386 5382 5378
5463 5470 5476 5478 5482 5485 5487 5491 5494 5496 5497 5500 5498 5499 5498 5498 5500 5498 5496 5494 5491 5486 5484 5480 5476 5472 5467 5461 5453 5447 5440 5433 5423 5414 5405 5399 5393 5387 5381 5376 5371 5366 5362 5357
5464 5468 5472 5477 5478 5480 5484 5486 5487 5489 5490 5492 5494 5496 5496 5493 5492 5493 5491 5488 5484 5480 5478 5471 5469 5463 5457 5450 5442 5433 5423 5413 5403 5394 5386 5380 5373 5367 5360 5354 5349 5344 5340 5335
5459 5466 5470 5473 5474 5478 5482 5484 5485 5488 5488 5491 5493 5489 5487 5487 5488 5488 5486 5480 5475 5471 5470 5463 5459 5453 5445 5437 5427 5417 5407 5396 5386 5376 5366 5358 5351 5344 5338 5331 5326 5321 5316 5311
5461 5466 5467 5467 5472 5477 5476 5478 5484 5484 5484 5485 5485 5483 5483 5483 5483 5480 5479 5473 5470 5466 5462 5457 5451 5443 5434 5425 5416 5404 5393 5380 5368 5358 5347 5338 5329 5321 5315 5308 5303 5297 5292 5288
5459 5464 5467 5468 5470 5473 5475 5477 5478 5478 5480 5481 5478 5479 5478 5478 5478 5477 5473 5470 5466 5461 5455 5449 5442 5434 5426 5416 5404 5391 5377 5363 5351 5338 5327 5317 5308 5300 5293 5287 5282 5276 5271 5266
Wind_Speed
83 88 78 85 83 72 73 69 70 65 62 61 63 63 63 59 54 49 47 47 36 37 39 39 36 36 35 34 34 37 38 45 45 48 51 53 56 57 62 61 59 67 71 74
69 83 77 73 83 77 78 69 69 66 63 69 70 65 61 56 51 49 47 46 37 34 35 39 40 38 38 38 41 46 48 50 48 51 53 55 57 57 57 61 65 70 72 77
75 64 81 73 77 81 81 78 77 71 64 72 67 64 61 57 55 51 50 45 38 36 31 35 42 41 43 43 43 49 50 53 52 53 55 58 60 61 62 66 72 74 80 81
75 66 58 68 73 71 77 79 78 77 73 74 66 66 66 62 58 58 56 43 31 34 37 37 35 38 42 45 50 50 52 56 56 56 56 60 61 64 68 72 76 81 81 85
73 72 73 76 80 72 73 67 63 57 61 69 70 65 57 56 58 53 47 40 32 37 34 35 40 42 44 48 50 50 53 55 58 58 60 61 63 65 70 75 78 81 84 86
65 70 63 63 71 71 74 64 53 48 46 52 59 46 51 57 62 52 48 42 40 41 36 41 41 42 47 51 50 48 52 55 57 61 62 64 64 69 75 78 80 83 85 86
74 70 64 54 54 60 68 59 62 53 49 39 34 42 45 44 41 43 37 39 39 36 42 45 43 46 44 45 48 50 55 58 61 63 63 66 72 74 76 78 81 77 77 77
88 79 62 57 55 59 61 53 51 52 53 45 44 38 42 45 44 43 36 34 36 42 45 47 48 47 47 47 51 54 55 58 60 64 67 72 74 72 72 72 68 69 70 65
82 70 68 52 56 48 57 52 41 38 38 43 43 46 51 43 35 37 38 32 35 42 43 48 50 49 51 52 53 55 57 59 61 65 68 72 69 68 69 68 62 60 55 51
83 77 57 43 51 51 51 53 54 47 43 40 44 42 43 46 43 41 37 37 41 41 43 47 49 50 49 53 55 55 57 61 64 67 69 68 64 65 62 56 53 46 40 30
78 78 64 51 45 51 61 47 48 43 33 38 36 23 28 33 36 38 39 44 46 45 44 44 46 50 49 49 51 56 61 63 63 63 61 59 59 53 52 46 35 29 23 20
70 77 69 56 49 47 37 40 33 34 29 30 30 30 25 20 28 38 44 43 45 46 44 45 47 48 48 52 56 57 58 58 58 57 54 54 51 46 38 31 25 23 21 19
61 52 44 52 50 37 42 35 36 38 38 29 29 35 33 32 37 44 43 42 41 40 42 43 45 48 51 56 56 53 54 55 52 53 48 47 36 35 31 29 25 24 25 26
49 48 39 38 45 37 30 35 32 36 34 34 38 37 41 42 43 43 44 40 41 43 41 43 48 53 56 52 50 49 53 48 46 38 37 35 30 31 31 29 30 30 31 30
54 40 42 39 38 35 35 42 44 39 33 37 40 38 41 43 41 39 39 41 41 40 43 47 51 51 48 47 47 48 51 41 36 31 34 32 32 33 34 33 35 35 35 35
32 34 36 36 34 38 38 43 45 44 44 41 39 39 39 39 38 38 39 40 40 43 46 46 45 44 43 43 42 43 37 33 33 31 34 34 34 36 37 37 38 38 37 35
51 40 43 34 26 34 40 36 32 34 35 33 33 35 35 33 33 35 36 39 42 41 39 39 41 43 44 39 33 36 35 35 36 38 39 37 39 40 42 42 42 43 43 41
41 37 37 29 27 24 24 23 20 19 19 21 23 26 29 30 32 33 34 34 35 37 36 38 38 34 34 33 35 35 36 37 37 39 40 42 44 45 46 47 49 50 48 46
47 30 31 31 24 18 14 14 13 14 16 19 24 28 30 30 30 31 30 32 33 35 34 30 30 29 32 35 36 36 37 38 38 40 41 43 45 46 47 49 51 51 50 49
30 37 36 18 11 11 12 12 13 15 17 21 23 25 25 25 26 27 29 33 30 26 26 29 29 30 35 34 34 35 38 40 41 41 42 44 43 43 44 44 46 46 44 43
26 17 13 15 14 12 13 15 16 20 20 20 18 19 20 22 25 25 21 23 24 24 25 27 29 32 33 35 38 42 44 45 47 48 49 48 46 45 46 47 48 50 51 50
25 25 23 18 14 17 19 18 18 17 15 14 16 19 20 17 16 19 21 21 24 26 27 29 31 34 37 40 42 45 47 49 50 51 50 49 48 47 48 51 54 55 57 58
33 24 20 17 17 18 14 12 11 11 13 13 10 11 13 16 19 18 20 22 24 25 27 29 32 34 37 40 43 46 49 52 53 54 53 51 51 52 53 55 57 59 61 64
18 17 15 13 8 6 7 9 8 7 7 8 12 14 14 14 14 17 19 20 22 23 26 28 32 35 39 44 50 54 58 61 62 60 59 55 54 55 56 58 59 60 62 63
12 9 9 10 8 9 9 8 6 7 6 8 9 7 7 10 13 15 18 21 24 26 29 32 36 41 47 53 58 63 67 69 67 64 62 60 59 58 57 59 59 60 61 63
13 12 11 10 9 8 6 6 6 4 1 2 3 6 8 11 15 18 21 23 26 29 33 37 41 46 51 57 62 68 71 71 68 65 64 63 63 62 61 61 60 60 61 61
17 16 14 12 11 10 10 8 6 5 3 5 8 10 12 16 18 20 22 24 28 32 36 40 45 49 54 60 67 71 72 70 68 65 63 60 58 55 52 50 47 45 44 44
Wind_Direction
226 229 222 219 217 220 225 228 230 232 235 237 238 246 256 258 259 263 269 272 270 273 283 281 275 277 276 277 284 286 288 286 286 285 283 283 284 289 291 292 298 298 302 301
218 216 217 219 220 220 224 226 229 232 234 238 242 247 252 259 262 265 269 269 270 267 283 280 274 273 272 279 288 290 294 298 299 297 291 291 293 292 295 298 299 300 300 300
214 217 224 224 225 227 226 226 231 230 231 239 242 245 252 258 263 263 267 268 269 275 275 277 273 276 276 280 286 290 292 295 295 294 293 294 292 293 295 295 296 296 298 297
210 222 205 214 223 226 228 232 240 238 236 240 238 245 257 262 262 263 267 274 284 282 277 274 272 274 281 282 291 292 292 295 293 292 291 291 292 292 292 294 297 296 295 296
211 222 217 229 228 231 230 235 241 245 244 237 240 251 256 261 262 268 271 275 282 276 271 276 281 279 280 285 289 289 292 290 289 289 290 291 291 291 292 293 293 294 296 297
205 196 206 198 217 228 233 241 237 243 247 246 248 262 263 261 262 273 274 278 277 277 275 284 285 286 285 283 286 286 286 285 286 288 292 291 293 292 294 296 297 296 299 301
197 197 206 212 221 230 230 239 241 249 253 254 261 263 267 270 267 277 276 281 276 275 284 288 283 285 287 282 280 283 283 286 287 289 289 290 292 294 298 297 296 301 303 305
189 202 203 211 229 232 221 239 244 246 252 256 256 262 268 270 267 273 276 277 274 281 280 281 283 277 278 278 281 284 285 289 290 289 288 290 293 297 296 299 303 305 306 307
201 200 205 210 215 223 230 230 230 241 250 249 255 264 266 264 262 271 282 272 283 280 276 275 278 276 279 282 285 288 290 289 288 290 293 293 297 298 301 304 306 306 310 312
206 215 197 200 205 208 215 225 237 245 249 258 253 260 254 260 265 268 272 266 278 278 279 275 276 279 283 286 289 290 288 288 291 294 294 297 299 302 305 306 309 308 312 325
215 212 202 205 205 216 226 229 232 242 242 250 248 262 261 256 260 265 268 268 270 276 275 276 279 283 286 288 288 289 290 292 293 293 296 300 301 303 305 308 306 312 318 323
212 217 203 213 217 220 220 208 236 225 239 233 242 255 271 264 261 259 266 267 271 273 273 281 284 285 288 287 287 290 290 292 295 298 300 301 305 305 302 299 302 310 308 309
216 216 201 205 207 217 230 223 220 230 230 239 247 256 264 253 257 260 260 266 268 274 284 284 283 284 287 289 290 292 293 295 298 301 302 303 300 300 297 298 301 303 302 295
188 198 192 202 197 204 217 216 217 222 227 244 247 246 250 258 256 253 262 266 275 280 280 280 284 288 289 289 290 292 293 298 301 303 297 305 296 296 297 295 299 303 302 300
183 187 200 199 217 205 212 219 227 235 234 247 245 238 245 249 255 260 267 273 275 278 282 285 286 286 289 293 295 296 299 304 302 303 299 301 300 295 293 296 295 295 295 293
191 203 193 193 202 209 215 220 224 224 229 228 236 243 247 256 262 269 274 278 281 282 285 285 285 289 293 296 299 297 304 304 302 298 296 297 293 293 294 291 291 290 287 285
183 193 195 204 203 206 215 223 224 225 229 233 241 249 257 265 271 275 281 283 284 284 285 288 292 296 297 300 300 300 304 302 300 299 299 296 291 289 288 287 285 283 282 283
180 186 184 194 198 197 196 200 209 220 238 246 254 260 264 269 275 279 280 280 283 286 290 295 299 302 302 303 301 301 301 302 299 298 298 296 293 290 288 285 282 280 280 280
178 182 182 171 177 195 214 216 227 236 243 254 262 266 270 273 274 275 280 286 289 293 297 300 303 305 303 304 305 305 304 307 306 303 299 295 292 289 286 283 281 281 281 280
174 180 172 189 202 229 259 253 272 288 273 264 265 268 267 273 280 287 290 291 293 298 301 302 307 304 305 312 312 313 312 311 309 305 302 299 296 292 290 290 288 285 278 275
182 190 187 203 218 241 268 271 261 260 255 258 268 276 280 282 283 288 292 296 299 304 306 310 310 310 317 317 316 313 312 313 311 309 306 303 300 296 293 291 287 283 281 278
183 188 200 221 239 251 251 250 252 252 264 272 276 278 281 286 292 296 299 305 311 312 315 314 316 316 315 314 314 314 313 310 308 305 304 301 298 293 287 284 282 282 282 281
191 211 230 236 235 238 247 247 251 262 273 278 281 285 291 294 294 304 307 306 311 315 314 316 314 313 314 316 316 314 312 312 312 311 308 303 297 291 288 285 282 280 279 280
206 200 207 213 207 219 244 253 248 241 252 274 283 280 282 292 303 302 308 314 315 316 316 318 318 319 321 321 321 323 323 322 320 315 311 306 299 293 288 285 283 282 282 283
163 174 175 181 203 207 195 204 220 236 247 253 261 276 301 307 309 311 317 323 325 327 324 325 326 327 327 327 327 326 324 322 319 315 311 307 303 298 294 290 288 286 283 281
168 189 187 166 176 190 180 172 184 169 164 312 325 337 337 330 325 330 328 330 330 331 329 328 328 328 328 327 326 325 323 319 316 313 309 306 302 300 297 294 291 289 286 284
162 160 160 153 145 137 123 107 90 72 47 11 360 349 344 340 332 334 332 334 333 332 331 331 331 330 329 328 327 325 322 319 317 313 310 307 304 303 301 300 299 298 296 295